Regional Weather Roundup
Issued by NWS Charleston, SC

Current Version | Previous Version | Graphics & Text | Print | Product List | Glossary On
Versions: 1 2 3 4 5 6 7 8 9 10 11 12 13 14 15 16 17 18 19 20 21 22 23 24 25 26 27 28 29 30 31 32 33 34 35 36 37 38 39 40 41 42 43 44 45 46 47 48 49 50
213
ASUS42 KCHS 222012
RWRCHS

REGIONAL WEATHER ROUNDUP
NATIONAL WEATHER SERVICE CHARLESTON SC
400 PM EDT MON MAY 22 2017

NOTE: "FAIR" INDICATES FEW OR NO CLOUDS BELOW 12,000 FEET WITH NO
SIGNIFICANT WEATHER AND/OR OBSTRUCTIONS TO VISIBILITY.

NOT ALL STATIONS ARE QUALITY CONTROLLED. USE DATA WITH CAUTION...
ESPECIALLY DEWPOINT OBSERVATIONS.

SCZ027-030-031-034>040-042>050-222100-
...SOUTHEAST SOUTH CAROLINA...

CITY           SKY/WX    TMP DP  RH WIND       PRES   REMARKS
N CHARLESTON   PTSUNNY   83  70  64 S13       29.95F
WATERFRONT PRK   N/A     80  74  82 S14       29.95F
JOHNS ISLAND   FAIR      81  75  83 S12       29.96F
PINOPOLIS        N/A     84  73  70 VRB2      29.88F HX  91
MONCKS CORNER  MOCLDY    82  70  65 SE3       29.94F
SUMMERVILLE    FAIR      82  72  69 S7        29.95F
BEAUFORT MCAS  CLOUDY    76  73  91 CALM      29.95F
BEAUFORT ARPT  MOCLDY    77  73  88 S6        29.96F
HILTON HEAD IS PTSUNNY   81  75  83 S7        29.97F
WALTERBORO     TSTM      73  68  83 S20G26    29.99R
ALLENDALE      MOCLDY    73  70  88 CALM      29.95S

...SOUTHERN MIDLANDS AND PEE DEE...

CITY           SKY/WX    TMP DP  RH WIND       PRES   REMARKS
GEORGETOWN     FAIR      82  72  69 S13G18    29.97F
KINGSTREE      FAIR      86  68  54 S6        29.94F
ORANGEBURG     CLOUDY    82  69  64 SW8       29.95F
BARNWELL       DRIZZLE   73  73 100 S8        29.99R
AIKEN          MOCLDY    79  66  65 W10       30.00R
MANNING        FAIR      82  73  74 S13       29.95F
COLUMBIA       CLOUDY    78  69  73 NE5       29.94F
SUMTER         TSTM      72  66  83 NW15G28   29.93F VSB 3/4
FLORENCE       CLOUDY    85  69  58 S8        29.94F
MYRTLE BEACH   MOSUNNY   81  72  74 S18       29.97F
N MYRTLE BEACH CLOUDY    81  72  74 S16       29.96F

$$

GAZ063-065-086>088-099>101-113>116-118-119-134>141-150-222100-
...SOUTHEAST GEORGIA...

CITY           SKY/WX    TMP DP  RH WIND       PRES   REMARKS
SAVANNAH ARPT  CLOUDY    81  70  69 E13       29.93F
HUNTER AAF     CLOUDY    86  78  76 S12       29.92F HX  97
FORT STEWART   CLOUDY    88  67  50 S8        29.92F HX  91
STATESBORO     CLOUDY    83  72  69 CALM      29.95F
SYLVANIA       CLOUDY    80  76  86 CALM      29.96F
CLAXTON        FAIR      85  78  77 W3        29.94F HX  96

...CSRA...CENTRAL AND FAR SOUTHEAST GEORGIA...

CITY           SKY/WX    TMP DP  RH WIND       PRES   REMARKS
THOMSON        RAIN      70  68  94 NW5       30.03F FOG
AUGUSTA-BUSH   LGT RAIN  76  71  85 SE10      29.95R
AUGUSTA-DANIEL CLOUDY    79  65  62 E8        29.98R
SWAINSBORO     MOCLDY    79  72  78 W5        29.97F
VIDALIA        CLOUDY    86  70  58 W6        29.95F HX  90
EASTMAN        LGT RAIN  78  63  61 N3        29.99F
HAZLEHURST     CLOUDY    86  69  57 W3        29.94F HX  90
ALMA           CLOUDY    89  67  47 S8        29.94F HX  92
WAYCROSS       PTSUNNY   92  69  47 W12       29.94S HX  97
JESUP          FAIR      88  70  55 S6        29.95S HX  92
BAXLEY         PTSUNNY   88  72  58 SW8       29.94F HX  94
BRUNSWICK      TSTM      72  72 100 W6G20     30.01R VSB 3/4
SAINT SIMONS   TSTM      73  71  93 N5        29.99S VSB 3/4

$$

SCZ027-028-034-036>038-045-046-048>050-GAZ119-141-222100-
...LAKE AND SUPPLEMENTAL COASTAL OBSERVATIONS...

STATION/POSITION TIME  TEMP    WIND        PRES    WAVE   SWELL
                       AIR SEA DIR/SP/G            HT/PER HT/PER/DIR
                 (UTC) (F)     (DEG/KT/KT) (MB)    (FT/S) (FT/S/D)
WINYAH BAY       NOT AVBL
LAKE MURRAY      1920   76     190/  4/  6 1014.6S
ACE BASIN NERRS  NOT AVBL
FORT PULASKI     1948   80 80  150/  9/ 14 1014.5F
SAPELO ISLAND    1900   88     120/  8     1015.0

$$

ANZ835-935-AMZ111-154-330-350-352-354-370-450-454-472-222100-
...C-MAN AND BUOY OBSERVATIONS...

STATION/POSITION TIME  TEMP    WIND        PRES    WAVE   SWELL
                       AIR SEA DIR/SP/G            HT/PER HT/PER/DIR
                 (UTC) (F)     (DEG/KT/KT) (MB)    (FT/S) (FT/S/D)
BUOY 41004       1950   78 78  180/ 12/ 14 1015.0F   3/ 9   2/ 90/ 9
BUOY 41008       1850   78 79  180/ 10/ 12 1015.5    2/ 8   2/120/ 8
FOLLY BEACH CMAN 1900   79     180/ 11/ 13 1016.4F
CAPERS NEARSHORE 1908   81 78  200/ 12/ 16 1015.2F
FRIPP NEARSHORE  1908   78 79  170/ 14/ 16 1015.2F


STATION/POSITION TIME  TEMP    WIND        PRES    WAVE   SWELL
                       AIR SEA DIR/SP/G            HT/PER HT/PER/DIR
                 (UTC) (F)     (DEG/KT/KT) (MB)    (FT/S) (FT/S/D)
5E ST. MARYS GA  1930      80                N/A     2/ 4
FRYING PAN BUOY  1950   78 78  200/ 14/ 16 1015.1F   3/ 8   2/ 90/ 8
BUOY 41025       1950   77 78  200/ 14/ 17 1015.6F   4/ 8   3/ 80/ 8
CAPE LOOKOUT NC  1900   78     210/ 13/ 18 1015.6F
BUOY 41002       1850   76 78  220/  4/  6 1018.9    4/ 8   3/ 10/ 8
BUOY 41010       1950   78 79  150/ 10/ 12 1017.0F   2/ 6   2/110/ 6
ST AUGUSTINE FL  2000   78 81  160/ 20/ 22 1015.3F


$$




USA.gov is the U.S. government's official web portal to all federal, state and local government web resources and services.